User: anonymous   Login
Location: Brno
(49.2000°N, 16.6330°E)
Time: 09:07:15
(UTC+02:00)
Language:

RESURS DK-1 - Orbit

View from above orbital plane
View from above orbital plane
View from above satellite
View from above satellite

Ground track
Ground track

The orbit data is extracted from the following two-line orbital elements,

1 29228U 06021A   16242.16244929  .00000186  00000-0  21547-4 0  9992
2 29228  69.9354 120.9546 0002146  36.7561 323.3747 15.01967216564258
Epoch (UTC): 29 August 2016 03:53:55
Eccentricity: 0.0002146
inclination: 69.9354°
perigee height: 559 km
apogee height: 562 km
right ascension of ascending node: 120.9546°
argument of perigee: 36.7561°
revolutions per day: 15.01967216
mean anomaly at epoch: 323.3747°
orbit number at epoch: 56425

The dashed part of the orbit path shows where the satellite is in the earth's shadow,  

DLR